Total_Precipitation_Accumulation
0.00 0.03 0.11 0.07 0.05 0.05 0.05 0.05 0.07 0.07 0.10 0.14 0.17 0.18 0.19 0.20 0.19 0.16 0.17 0.17 0.18 0.19 0.21 0.25 0.26 0.24 0.22 0.21 0.18 0.10 0.05 0.03 0.02 0.02 0.02 0.04 0.05 0.05 0.05 0.05 0.07 0.09 0.11
0.00 0.03 0.09 0.07 0.07 0.07 0.07 0.06 0.06 0.07 0.10 0.16 0.22 0.22 0.20 0.19 0.19 0.17 0.14 0.14 0.14 0.18 0.23 0.24 0.18 0.11 0.06 0.04 0.03 0.03 0.02 0.01 0.00 0.00 0.00 0.01 0.02 0.03 0.03 0.03 0.05 0.08 0.09
0.00 0.03 0.08 0.09 0.08 0.08 0.07 0.06 0.05 0.07 0.11 0.17 0.23 0.21 0.20 0.16 0.15 0.15 0.12 0.12 0.12 0.14 0.16 0.13 0.07 0.04 0.02 0.01 0.01 0.00 0.00 0.00 0.00 0.00 0.00 0.01 0.01 0.02 0.02 0.02 0.04 0.05 0.07
0.01 0.03 0.06 0.10 0.08 0.07 0.07 0.06 0.06 0.08 0.12 0.16 0.23 0.22 0.20 0.16 0.17 0.15 0.12 0.08 0.07 0.06 0.05 0.03 0.02 0.01 0.01 0.00 0.00 0.00 0.00 0.00 0.00 0.00 0.00 0.01 0.01 0.02 0.03 0.03 0.04 0.05 0.07
0.03 0.05 0.08 0.11 0.08 0.06 0.07 0.06 0.07 0.09 0.13 0.19 0.23 0.23 0.18 0.17 0.17 0.11 0.07 0.03 0.03 0.03 0.02 0.01 0.01 0.00 0.00 0.00 0.01 0.01 0.01 0.00 0.00 0.00 0.00 0.01 0.01 0.03 0.04 0.04 0.06 0.07 0.09
0.06 0.09 0.14 0.13 0.09 0.07 0.06 0.06 0.09 0.10 0.15 0.20 0.25 0.23 0.17 0.18 0.20 0.13 0.06 0.02 0.02 0.02 0.01 0.01 0.01 0.01 0.01 0.00 0.00 0.00 0.00 0.00 0.00 0.00 0.01 0.01 0.02 0.04 0.04 0.05 0.08 0.10 0.12
0.12 0.16 0.21 0.20 0.16 0.12 0.08 0.08 0.09 0.11 0.16 0.21 0.24 0.23 0.19 0.18 0.17 0.13 0.08 0.03 0.02 0.02 0.01 0.01 0.02 0.02 0.01 0.01 0.01 0.00 0.00 0.00 0.00 0.00 0.01 0.01 0.02 0.04 0.05 0.07 0.10 0.12 0.12
0.28 0.32 0.33 0.29 0.21 0.16 0.15 0.13 0.11 0.12 0.18 0.22 0.22 0.23 0.21 0.16 0.14 0.15 0.11 0.04 0.02 0.02 0.02 0.02 0.03 0.03 0.02 0.02 0.01 0.00 0.00 0.00 0.00 0.00 0.00 0.01 0.02 0.06 0.07 0.08 0.09 0.10 0.11
0.60 0.62 0.55 0.43 0.30 0.24 0.21 0.16 0.13 0.14 0.19 0.23 0.23 0.22 0.20 0.15 0.11 0.10 0.11 0.07 0.05 0.04 0.03 0.03 0.03 0.03 0.03 0.01 0.01 0.00 0.00 0.00 0.00 0.00 0.00 0.01 0.04 0.08 0.11 0.12 0.14 0.14 0.13
0.97 0.95 0.81 0.64 0.43 0.32 0.26 0.20 0.16 0.16 0.19 0.22 0.21 0.17 0.14 0.12 0.11 0.08 0.05 0.05 0.04 0.03 0.03 0.03 0.03 0.04 0.02 0.00 0.00 0.00 0.00 0.00 0.00 0.00 0.00 0.02 0.08 0.15 0.16 0.17 0.18 0.17 0.14
1.21 1.22 1.13 0.88 0.64 0.44 0.33 0.23 0.19 0.17 0.20 0.21 0.17 0.13 0.11 0.09 0.10 0.08 0.04 0.02 0.02 0.02 0.02 0.02 0.02 0.02 0.00 0.00 0.00 0.00 0.00 0.00 0.00 0.00 0.01 0.04 0.11 0.14 0.13 0.13 0.12 0.09 0.08
1.29 1.28 1.28 1.12 0.85 0.61 0.44 0.30 0.23 0.18 0.18 0.17 0.14 0.13 0.10 0.08 0.08 0.06 0.04 0.02 0.02 0.02 0.01 0.01 0.00 0.00 0.00 0.00 0.00 0.00 0.00 0.00 0.00 0.00 0.01 0.02 0.05 0.07 0.06 0.05 0.04 0.04 0.04
1.41 1.38 1.40 1.35 1.10 0.81 0.57 0.39 0.30 0.23 0.21 0.17 0.14 0.14 0.11 0.09 0.07 0.06 0.05 0.05 0.03 0.01 0.01 0.00 0.00 0.00 0.00 0.00 0.00 0.00 0.00 0.00 0.00 0.00 0.00 0.00 0.02 0.04 0.04 0.03 0.03 0.04 0.04
1.53 1.43 1.45 1.45 1.28 1.06 0.77 0.53 0.37 0.28 0.24 0.20 0.16 0.15 0.14 0.10 0.07 0.05 0.05 0.05 0.03 0.01 0.00 0.00 0.00 0.00 0.00 0.00 0.00 0.00 0.00 0.00 0.00 0.00 0.00 0.00 0.01 0.02 0.03 0.03 0.05 0.06 0.07
1.52 1.51 1.48 1.42 1.33 1.21 1.05 0.77 0.51 0.37 0.31 0.27 0.22 0.16 0.14 0.13 0.10 0.07 0.05 0.04 0.02 0.01 0.00 0.00 0.00 0.00 0.00 0.00 0.00 0.00 0.00 0.00 0.00 0.00 0.00 0.00 0.00 0.01 0.02 0.03 0.06 0.09 0.11
1.39 1.48 1.51 1.41 1.31 1.20 1.14 1.01 0.76 0.54 0.40 0.37 0.33 0.25 0.18 0.15 0.15 0.11 0.06 0.03 0.02 0.01 0.00 0.00 0.00 0.00 0.00 0.00 0.00 0.00 0.00 0.00 0.00 0.00 0.00 0.00 0.00 0.00 0.01 0.03 0.06 0.09 0.13
1.23 1.35 1.45 1.49 1.42 1.26 1.15 1.14 0.98 0.77 0.57 0.43 0.37 0.34 0.26 0.19 0.16 0.14 0.10 0.05 0.03 0.02 0.01 0.01 0.01 0.00 0.00 0.00 0.00 0.00 0.00 0.00 0.00 0.00 0.00 0.00 0.00 0.00 0.00 0.02 0.05 0.09 0.15
1.13 1.23 1.32 1.39 1.42 1.36 1.22 1.19 1.15 0.96 0.76 0.57 0.44 0.36 0.32 0.26 0.21 0.16 0.12 0.09 0.07 0.06 0.04 0.04 0.03 0.02 0.02 0.01 0.01 0.01 0.02 0.01 0.01 0.00 0.00 0.00 0.00 0.00 0.00 0.01 0.03 0.07 0.11
1.05 1.17 1.28 1.30 1.35 1.40 1.44 1.36 1.24 1.13 0.94 0.74 0.58 0.42 0.36 0.34 0.30 0.24 0.17 0.14 0.12 0.10 0.09 0.09 0.07 0.06 0.05 0.05 0.05 0.04 0.03 0.02 0.02 0.01 0.01 0.01 0.01 0.01 0.01 0.01 0.01 0.02 0.04
1.09 1.20 1.33 1.33 1.43 1.53 1.65 1.61 1.45 1.26 1.08 0.92 0.73 0.56 0.48 0.44 0.43 0.36 0.26 0.22 0.18 0.13 0.11 0.11 0.12 0.12 0.10 0.10 0.09 0.05 0.04 0.03 0.02 0.01 0.01 0.02 0.02 0.02 0.02 0.01 0.01 0.02 0.02
1.21 1.24 1.35 1.40 1.48 1.55 1.55 1.44 1.31 1.19 1.11 1.03 0.89 0.81 0.71 0.62 0.59 0.52 0.40 0.32 0.28 0.21 0.17 0.20 0.21 0.18 0.16 0.18 0.14 0.07 0.04 0.03 0.02 0.02 0.02 0.03 0.02 0.03 0.03 0.03 0.03 0.02 0.02
1.23 1.24 1.36 1.43 1.47 1.48 1.50 1.56 1.50 1.51 1.41 1.31 1.20 1.10 0.97 0.87 0.81 0.72 0.63 0.56 0.50 0.42 0.33 0.29 0.28 0.24 0.23 0.26 0.23 0.18 0.08 0.04 0.03 0.04 0.04 0.03 0.03 0.04 0.04 0.05 0.04 0.03 0.03
1.10 1.28 1.35 1.41 1.46 1.49 1.68 2.01 1.95 1.82 1.69 1.55 1.41 1.30 1.20 1.13 1.08 0.96 0.88 0.84 0.75 0.62 0.51 0.47 0.46 0.41 0.37 0.35 0.32 0.31 0.19 0.09 0.07 0.05 0.04 0.04 0.04 0.04 0.04 0.05 0.04 0.04 0.03
0.91 1.14 1.40 1.48 1.57 1.69 1.87 2.04 2.06 1.81 1.59 1.47 1.46 1.44 1.41 1.29 1.23 1.18 1.12 1.04 0.97 0.85 0.71 0.65 0.62 0.59 0.53 0.45 0.39 0.32 0.30 0.22 0.18 0.11 0.06 0.06 0.05 0.04 0.05 0.06 0.06 0.05 0.05
0.82 0.96 1.22 1.44 1.51 1.70 1.85 1.92 2.02 1.84 1.56 1.49 1.49 1.43 1.40 1.31 1.20 1.16 1.13 1.06 0.98 0.90 0.84 0.78 0.72 0.67 0.58 0.52 0.46 0.43 0.41 0.31 0.23 0.21 0.13 0.08 0.08 0.08 0.07 0.07 0.07 0.07 0.07
0.73 0.81 0.94 1.12 1.20 1.34 1.51 1.69 1.82 1.82 1.69 1.55 1.44 1.37 1.31 1.27 1.19 1.13 1.10 1.03 0.95 0.88 0.84 0.83 0.80 0.75 0.67 0.59 0.51 0.48 0.46 0.40 0.31 0.28 0.26 0.18 0.15 0.12 0.10 0.09 0.09 0.09 0.10